Location: *
(43.9905°S, 176.4941°W)
Time: 16:02:11
(UTC+00:00)

ATLAS 5 CENTAUR R/B - Pass Details

Date: 08 December 2019
Orbit: 550 x 1109 km, 63.4° (Epoch: 17 January)

Event Time Altitude Azimuth Distance (km) Brightness Sun altitude
Rises 09:22:01 0° 216° (SW) 3,580 7.3 -16.4°
Reaches altitude 10° 09:25:45 10° 196° (SSW) 2,511 5.9 -16.8°
Maximum altitude 09:29:19 16° 158° (SSE) 1,969 4.6 -17.1°
Drops below altitude 10° 09:32:35 10° 119° (ESE) 2,263 4.4 -17.4°
Enters shadow 09:35:34 - 97° (E) 3,037 4.9 -17.7°
